[[{"header":{"parameterUnit":"m.s-1","parameterCategory":1,"la1":30.2991,"la2":30.254,"lo1":-89.0895,"lo2":-89.0444,"dy":0.0017,"dx":0.0017,"nx":28,"ny":28,"refTime":"2025-07-23T21:00:00:Z","depth":0,"parameterNumber":2,"parameterNumberName":"U-component_of_WINDS"},"data":[0,0,0,0,0,0,0,0,0,0,0,0,0,0,0,0,0,0,0,0,0,0,0,0,0,0,0,0,0,0,0,0,0,0,0,0,0,0,0,0,0,0,0,0,0,0,0,0,0,0,0,0,0,0,0,0,0,0,-3.1364,-3.1363,0,-3.1279,-3.1278,-3.1277,-3.1192,-3.1191,-3.119,-3.1188,-3.11,-3.1099,-3.1098,0,0,0,0,0,0,0,0,0,0,0,0,0,-3.1449,-3.1448,-3.1364,-3.1363,-3.1362,-3.1279,-3.1278,-3.1277,-3.1192,-3.1191,-3.1189,-3.1188,-3.1101,-3.1099,-3.1098,0,0,0,0,0,0,0,0,0,0,0,0,0,-3.1393,-3.1447,-3.1364,-3.1309,-3.1304,-3.1279,-3.1278,-3.1276,-3.1192,-3.1191,-3.1189,-3.1187,-3.1101,-3.1099,-3.1097,-3.112,0,0,-3.1092,-3.1091,0,0,0,0,0,0,0,0,-3.1396,-3.139,-3.1319,-3.1313,-3.1307,-3.1244,-3.1275,-3.1224,-3.1193,-3.1235,-3.1188,-3.1186,-3.115,-3.1143,-3.1131,-3.1115,-3.1112,-3.1091,-3.109,-3.1089,-3.1089,0,0,0,0,0,0,0,-3.14,-3.1393,-3.133,-3.1318,-3.131,-3.1288,-3.1278,-3.1265,-3.1203,-3.1231,-3.1224,-3.1216,-3.1146,-3.1133,-3.1129,-3.111,-3.1091,-3.109,-3.1089,-3.1088,-3.1102,-3.1103,0,0,0,0,0,0,-3.1412,-3.1397,-3.1333,-3.1328,-3.1348,-3.1288,-3.1277,-3.1266,-3.1202,-3.1191,-3.1217,-3.1212,-3.1137,-3.1131,-3.1125,-3.1142,-3.1089,-3.1088,-3.1087,-3.11,-3.1102,-3.1104,0,0,0,0,0,0,-3.1415,-3.1408,-3.1336,-3.136,-3.1349,-3.1288,-3.1277,-3.1265,-3.1252,-3.1192,-3.118,-3.1216,-3.1136,-3.1128,-3.112,-3.1138,-3.1087,-3.1085,-3.1099,-3.1101,-3.1103,-3.118,0,0,0,0,0,0,-3.1417,-3.1409,-3.1418,-3.1361,-3.1349,-3.1334,-3.1278,-3.1265,-3.1249,-3.1242,-3.1188,-3.1177,-3.1134,-3.1124,-3.1118,-3.1135,-3.1083,-3.1097,-3.11,-3.1102,-3.1175,-3.1185,-3.1192,0,0,0,0,0,-3.1421,-3.1444,-3.1419,-3.1412,-3.1359,-3.1336,-3.1328,-3.1278,-3.1252,-3.1259,-3.1219,-3.1179,-3.1138,-3.1124,-3.1117,-3.1133,-3.1095,-3.1099,-3.1102,-3.1172,-3.1183,-3.1192,0,0,0,0,0,0,-3.1505,-3.1435,-3.1407,-3.1413,-3.1381,-3.1321,-3.1329,-3.1292,-3.1267,-3.1261,-3.12,-3.1188,-3.1186,-3.1159,-3.1145,-3.1148,-3.111,-3.1113,-3.1166,-3.1176,-3.1184,-3.1189,-3.1082,0,0,0,0,0,-3.1524,-3.1512,-3.1452,-3.1463,-3.1448,-3.1392,-3.138,-3.1344,-3.1308,-3.1294,-3.1254,-3.122,-3.1198,-3.1186,-3.1164,-3.1172,-3.1156,-3.1179,-3.1187,-3.1195,-3.1197,-3.1193,-3.1201,-3.1115,-3.1115,-3.1115,0,0,-3.1563,-3.1524,-3.152,-3.1478,-3.1449,-3.1436,-3.1381,-3.1371,-3.1359,-3.1292,-3.1281,-3.1251,-3.1209,-3.1207,-3.1205,-3.1185,-3.1217,-3.1199,-3.1205,-3.1203,-3.1198,-3.1206,-3.1213,-3.1118,-3.1117,-3.1117,0,0,-3.1628,-3.1599,-3.1602,-3.1573,-3.1529,-3.1491,-3.1492,-3.1438,-3.1415,-3.1403,-3.1351,-3.1336,-3.1302,-3.1272,-3.1253,-3.1303,-3.1263,-3.1297,-3.134,-3.1338,-3.1345,-3.135,-3.1364,-3.137,-3.13,-3.13,-3.13,0,-3.1682,-3.1661,-3.1608,-3.16,-3.1581,-3.1519,-3.152,-3.1495,-3.1446,-3.1434,-3.1412,-3.1364,-3.1332,-3.1321,-3.1332,-3.132,-3.1316,-3.1302,-3.1348,-3.1353,-3.1358,-3.137,-3.1375,-3.1304,-3.1304,-3.1303,-3.1303,0,-3.1728,-3.1714,-3.1722,-3.1675,-3.1657,-3.1654,-3.1598,-3.1587,-3.1552,-3.1515,-3.1501,-3.146,-3.1425,-3.1421,-3.1387,-3.1403,-3.1391,-3.136,-3.1321,-3.1371,-3.1381,-3.1385,-3.131,-3.1308,-3.1307,-3.1306,0,0,-3.1842,-3.1765,-3.1768,-3.1744,-3.169,-3.1677,-3.167,-3.1636,-3.1625,-3.1593,-3.1583,-3.1553,-3.1523,-3.1501,-3.1463,-3.1461,-3.1497,-3.1429,-3.1427,-3.144,-3.1507,-3.1528,-3.1535,-3.1471,-3.1472,-3.1473,-3.1509,0,-3.1894,-3.1877,-3.1828,-3.1825,-3.1809,-3.1749,-3.1742,-3.1706,-3.1672,-3.1652,-3.1613,-3.1591,-3.1555,-3.154,-3.1536,-3.1494,-3.1509,-3.1491,-3.1458,-3.1457,-3.1467,-3.1541,-3.1565,-3.1601,-3.1513,-3.1514,-3.1514,0,-3.1953,-3.1923,-3.1919,-3.1862,-3.1853,-3.1848,-3.181,-3.1794,-3.1751,-3.1725,-3.1699,-3.1656,-3.1641,-3.1607,-3.1583,-3.1572,-3.1555,-3.1532,-3.1532,-3.1525,-3.1487,-3.1532,-3.1612,-3.1616,-3.1521,-3.152,-3.152,0,-3.2032,-3.1991,-3.1982,-3.1964,-3.1899,-3.1895,-3.1868,-3.1823,-3.1805,-3.1772,-3.1758,-3.1725,-3.1706,-3.1679,-3.1627,-3.1607,-3.1608,-3.157,-3.1583,-3.1584,-3.1584,-3.1584,-3.1659,-3.1579,-3.1579,-3.1579,-3.1579,0,-3.2093,-3.2092,-3.2016,-3.201,-3.2005,-3.1948,-3.1944,-3.1911,-3.1872,-3.1856,-3.1802,-3.1789,-3.1722,-3.17,-3.1659,-3.1643,-3.1636,-3.1612,-3.1601,-3.1615,-3.1618,-3.1602,-3.1596,-3.158,-3.158,-3.158,-3.1579,0,-3.218,-3.213,-3.2115,-3.2053,-3.2038,-3.2037,-3.1983,-3.1973,-3.1934,-3.1915,-3.1907,-3.1846,-3.1816,-3.1762,-3.1718,-3.169,-3.1681,-3.1664,-3.1695,-3.1688,-3.1703,-3.1701,-3.1767,-3.1771,-3.1692,-3.1693,-3.1694,0,-3.2221,-3.2218,-3.2155,-3.2141,-3.2116,-3.2094,-3.2074,-3.2017,-3.1998,-3.1947,-3.1943,-3.1909,-3.1879,-3.1834,-3.1784,-3.1748,-3.1727,-3.1753,-3.1721,-3.1734,-3.1723,-3.1722,-3.172,-3.1759,-3.176,-3.1761,-3.1762,0,-3.2297,-3.2271,-3.2246,-3.221,-3.2188,-3.2158,-3.2124,-3.2115,-3.2049,-3.203,-3.2,-3.1976,-3.1929,-3.1895,-3.1851,-3.182,-3.1779,-3.1773,-3.1773,-3.1786,-3.1803,-3.179,-3.1711,-3.1771,-3.177,-3.1769,-3.1769,-3.1769,-3.2359,-3.2352,-3.2306,-3.2278,-3.2247,-3.2216,-3.2203,-3.2162,-3.2135,-3.2093,-3.206,-3.2031,-3.1984,-3.1921,-3.1892,-3.1866,-3.1847,-3.1849,-3.1849,-3.1849,-3.1853,-3.181,-3.1859,-3.1858,-3.1858,-3.1858,-3.1857,0,-3.2429,-3.2396,-3.2371,-3.2325,-3.2302,-3.2267,-3.2227,-3.2209,-3.2184,-3.2145,-3.2116,-3.2078,-3.2043,-3.199,-3.195,-3.194,-3.1919,-3.1931,-3.1929,-3.1922,-3.1875,-3.1876,-3.1948,-3.1948,-3.1948,-3.1948,-3.1947,-3.1947,-3.2463,-3.2448,-3.2417,-3.2384,-3.2351,-3.2322,-3.2302,-3.2272,-3.2239,-3.22,-3.2171,-3.2137,-3.209,-3.2046,-3.2012,-3.1996,-3.1983,-3.2,-3.1978,-3.1934,-3.1926,-3.1918,-3.1919,-3.1998,-3.1998,-3.2027,-3.2027,-3.2027]},{"header":{"parameterUnit":"m.s-1","parameterCategory":1,"la1":30.2991,"la2":30.254,"lo1":-89.0895,"lo2":-89.0444,"dy":0.0017,"dx":0.0017,"nx":28,"ny":28,"refTime":"2025-07-23T21:00:00:Z","depth":0,"parameterNumber":3,"parameterNumberName":"V-component_of_WINDS"},"data":[0,0,0,0,0,0,0,0,0,0,0,0,0,0,0,0,0,0,0,0,0,0,0,0,0,0,0,0,0,0,0,0,0,0,0,0,0,0,0,0,0,0,0,0,0,0,0,0,0,0,0,0,0,0,0,0,0,0,3.2045,3.2048,0,3.2285,3.2288,3.2291,3.2346,3.2345,3.2343,3.2342,3.2571,3.2579,3.2586,0,0,0,0,0,0,0,0,0,0,0,0,0,3.1621,3.1628,3.2045,3.2048,3.2051,3.2285,3.2288,3.2291,3.2347,3.2345,3.2343,3.2341,3.2569,3.2578,3.2587,0,0,0,0,0,0,0,0,0,0,0,0,0,3.1827,3.1631,3.2045,3.2107,3.2115,3.2284,3.2288,3.2292,3.2347,3.2345,3.2342,3.234,3.2566,3.2577,3.2588,3.2707,0,0,3.2623,3.2628,0,0,0,0,0,0,0,0,3.1815,3.1842,3.2095,3.2103,3.2113,3.2284,3.2223,3.2431,3.2348,3.2259,3.2342,3.2339,3.2477,3.2495,3.2545,3.2718,3.2728,3.2624,3.2631,3.2636,3.2639,0,0,0,0,0,0,0,3.1801,3.1832,3.214,3.2099,3.2109,3.2119,3.2146,3.2263,3.2377,3.2266,3.2271,3.2299,3.2481,3.2534,3.2551,3.2731,3.2624,3.2634,3.2641,3.2646,3.3015,3.3018,0,0,0,0,0,0,3.1778,3.182,3.2132,3.2147,3.1956,3.2129,3.2158,3.2231,3.2377,3.2397,3.2301,3.2301,3.2516,3.2537,3.2559,3.271,3.2636,3.2647,3.2653,3.3012,3.3015,3.3019,0,0,0,0,0,0,3.1768,3.1805,3.2122,3.1985,3.2026,3.2139,3.222,3.2237,3.2291,3.2404,3.2423,3.2335,3.2515,3.2543,3.2672,3.2719,3.2652,3.2662,3.3008,3.3013,3.3017,3.3011,0,0,0,0,0,0,3.1756,3.1801,3.1851,3.1986,3.2034,3.2235,3.2223,3.2243,3.2312,3.2314,3.2441,3.2459,3.2515,3.2654,3.2683,3.2733,3.2671,3.3005,3.301,3.3016,3.3007,3.3015,3.3021,0,0,0,0,0,3.1741,3.1835,3.1853,3.189,3.2098,3.2238,3.2264,3.2331,3.2315,3.2364,3.2437,3.2455,3.2709,3.2667,3.27,3.2754,3.3002,3.3009,3.3015,3.3004,3.3013,3.3021,0,0,0,0,0,0,3.1696,3.1854,3.1875,3.2017,3.2115,3.2247,3.231,3.2338,3.2437,3.2434,3.2508,3.2536,3.266,3.2719,3.267,3.2877,3.2854,3.2868,3.2835,3.2844,3.2851,3.2834,3.2681,0,0,0,0,0,3.1704,3.1808,3.1939,3.2051,3.21,3.2197,3.2259,3.2304,3.2405,3.2444,3.2526,3.2619,3.2721,3.2785,3.2884,3.3016,3.3044,3.3069,3.3076,3.3081,3.3092,3.3167,3.3181,3.3041,3.304,3.304,0,0,3.1718,3.1818,3.1878,3.2045,3.2125,3.2229,3.223,3.2338,3.2415,3.2459,3.2588,3.2651,3.2759,3.2891,3.2953,3.2944,3.3137,3.3089,3.3092,3.3101,3.3176,3.3189,3.32,3.3045,3.3044,3.3044,0,0,3.1799,3.1885,3.199,3.2072,3.2197,3.2261,3.2286,3.2416,3.2462,3.2593,3.2629,3.2718,3.289,3.2968,3.3029,3.3142,3.3163,3.3172,3.3207,3.328,3.3291,3.3301,3.3343,3.3357,3.3182,3.3182,3.3182,0,3.18,3.1963,3.2039,3.2149,3.222,3.2271,3.2376,3.245,3.2597,3.2644,3.2633,3.2854,3.2929,3.3081,3.311,3.3157,3.3186,3.3158,3.3284,3.3295,3.3305,3.3346,3.3362,3.3182,3.3182,3.3182,3.3182,0,3.1959,3.2071,3.214,3.229,3.2369,3.2474,3.2563,3.2633,3.267,3.2735,3.2868,3.2962,3.3083,3.3121,3.3155,3.3278,3.3269,3.327,3.3249,3.3318,3.3358,3.3374,3.3183,3.3183,3.3183,3.3183,0,0,3.2017,3.2211,3.2235,3.2305,3.2447,3.2532,3.2639,3.2764,3.2823,3.2922,3.3013,3.316,3.3163,3.3233,3.3276,3.334,3.3427,3.3334,3.3338,3.3349,3.3569,3.3568,3.3585,3.3441,3.3444,3.3447,3.356,0,3.2117,3.2318,3.2391,3.2554,3.2658,3.2709,3.2803,3.2898,3.2961,3.3055,3.3122,3.3226,3.3221,3.3265,3.333,3.3402,3.3472,3.3395,3.3524,3.3528,3.3498,3.3606,3.3606,3.3708,3.3576,3.3579,3.358,0,3.226,3.237,3.2546,3.2679,3.2725,3.2809,3.2929,3.302,3.3127,3.3169,3.3249,3.3289,3.34,3.3372,3.3525,3.3472,3.3528,3.3571,3.3577,3.3592,3.3559,3.3625,3.3742,3.3758,3.3605,3.3603,3.3601,0,3.2287,3.2478,3.2609,3.2666,3.2824,3.2882,3.2949,3.3055,3.3126,3.3229,3.3276,3.3388,3.3449,3.3533,3.3602,3.3575,3.3749,3.3726,3.3785,3.3784,3.382,3.3817,3.3949,3.3854,3.3853,3.3853,3.3853,0,3.2392,3.2497,3.2625,3.2705,3.2825,3.2905,3.302,3.3089,3.3184,3.3276,3.3323,3.3407,3.3493,3.3587,3.364,3.376,3.3786,3.3821,3.3834,3.3818,3.3814,3.3857,3.3852,3.3857,3.3856,3.3856,3.3855,0,3.2442,3.2532,3.2679,3.2818,3.2855,3.2938,3.3054,3.3133,3.3199,3.3315,3.3347,3.3449,3.3563,3.364,3.3783,3.3819,3.395,3.396,3.3916,3.3923,3.3978,3.3973,3.4144,3.4171,3.4055,3.4056,3.4057,0,3.2504,3.2588,3.2739,3.2808,3.2877,3.2985,3.3061,3.3142,3.3217,3.3348,3.341,3.3529,3.3629,3.3807,3.3891,3.4002,3.4016,3.4069,3.4033,3.4015,3.402,3.4015,3.4024,3.4074,3.4075,3.4076,3.4077,0,3.2605,3.2646,3.2756,3.2881,3.2971,3.3072,3.3172,3.3224,3.3322,3.3403,3.3525,3.3602,3.3753,3.387,3.3989,3.4052,3.4081,3.4088,3.4108,3.4093,3.4065,3.4083,3.3933,3.4083,3.4083,3.4082,3.4082,3.4081,3.2665,3.2743,3.2864,3.2984,3.307,3.3164,3.3246,3.3326,3.343,3.3564,3.3603,3.3729,3.3835,3.4,3.4066,3.4163,3.4157,3.4185,3.4193,3.4199,3.4201,3.4049,3.4184,3.4184,3.4184,3.4183,3.4183,0,3.277,3.2851,3.2961,3.3105,3.3199,3.3224,3.3337,3.3413,3.3526,3.3625,3.3725,3.3864,3.3978,3.4073,3.419,3.4249,3.4265,3.4277,3.4274,3.4289,3.4197,3.417,3.4263,3.4263,3.4263,3.4263,3.4263,3.4263,3.2836,3.2972,3.3027,3.3205,3.3284,3.3413,3.3476,3.3562,3.3643,3.3799,3.3897,3.396,3.4058,3.4183,3.4288,3.4313,3.4354,3.4364,3.4391,3.4304,3.4295,3.4286,3.4261,3.4372,3.4372,3.4475,3.4476,3.4477]}]]